CAPE
143 296 383 79 0 0 0 0 0 0 0 0 0 0 0 0 0 0 0 0 0 17 71 95 99 109 129 12 0 0 0 1 2 3 3 4 8 6 7 5 3 5 23 7 6 9 11 21 20
213 247 105 44 0 0 0 0 0 0 2 0 0 0 0 0 0 0 0 0 6 26 20 27 33 40 7 0 0 0 0 2 2 4 5 27 4 8 5 3 5 18 20 21 12 15 15 14 17
222 89 6 0 0 0 0 1 0 0 20 1 3 0 0 0 0 0 0 0 46 30 1 0 0 0 0 0 0 0 0 0 1 11 23 6 8 6 4 6 4 5 47 18 14 10 12 16 18
44 47 0 0 0 0 0 4 0 5 3 6 13 0 0 0 0 0 0 33 27 16 0 0 0 0 0 0 0 21 28 39 7 40 9 3 7 7 9 8 8 9 6 12 18 14 12 13 21
1 0 0 0 0 0 0 0 0 19 0 7 0 0 0 0 0 0 0 44 22 3 0 0 0 0 0 0 0 9 4 17 52 27 7 5 5 6 10 7 5 9 11 22 21 21 10 22 13
1 0 0 0 0 0 0 0 0 4 0 10 1 0 0 0 0 0 3 18 4 0 0 0 2 0 0 0 0 1 0 10 5 7 4 4 5 5 5 2 3 4 23 27 28 24 18 24 24
0 0 0 0 0 0 0 0 0 2 0 0 0 0 0 0 0 0 0 0 0 0 0 0 4 0 0 0 0 1 2 4 6 3 3 3 1 1 0 0 13 27 30 24 19 25 28 29 12
0 0 0 0 0 0 0 0 0 0 0 7 0 0 0 0 0 0 0 0 0 0 0 0 3 1 0 0 0 0 0 0 0 0 0 0 0 0 0 0 17 20 26 30 33 25 20 2 0
0 0 0 0 0 0 0 0 0 0 0 3 0 5 1 0 0 0 0 0 2 0 0 0 4 0 0 0 0 0 0 0 0 0 0 0 0 0 0 0 8 10 28 48 52 19 1 0 1
1 0 0 0 0 0 0 0 0 1 0 0 6 27 0 0 0 0 0 0 0 0 0 0 0 0 0 0 0 0 0 0 0 0 0 0 0 0 0 0 9 16 31 45 31 12 0 0 0
25 0 0 0 0 0 0 0 0 0 8 3 14 13 0 7 0 0 1 0 0 0 0 0 0 0 0 0 0 0 0 0 0 0 0 0 0 0 0 0 1 0 13 14 5 1 1 0 0
58 7 0 0 0 0 0 0 0 0 22 0 6 3 0 2 0 0 0 3 2 3 0 0 0 0 0 0 0 0 0 0 0 0 0 0 0 0 0 0 0 0 0 0 0 0 0 0 0
33 24 12 0 0 0 0 0 0 0 0 0 14 0 0 0 0 4 1 0 0 0 2 0 0 0 0 0 0 0 0 0 0 0 0 0 0 0 0 0 0 0 0 0 0 0 0 0 0
17 24 37 10 0 0 0 0 0 0 0 0 3 0 0 0 0 3 0 0 0 0 1 0 0 0 0 0 0 0 0 0 0 0 0 0 0 0 0 0 0 0 0 0 0 0 0 0 0
0 13 70 28 11 1 0 0 0 0 0 0 23 16 0 0 0 0 0 0 0 0 0 0 0 0 0 0 0 0 0 0 0 0 0 0 0 2 0 0 0 0 0 0 0 0 0 0 0
1 7 8 0 19 3 0 0 0 0 0 0 0 28 23 0 0 0 0 0 0 0 0 0 0 0 0 0 0 0 0 0 0 0 0 0 0 0 0 0 0 0 0 0 0 0 0 0 0
0 1 0 0 0 42 9 0 0 0 0 0 0 5 50 12 0 0 0 0 0 0 0 0 0 0 0 0 0 0 0 0 0 0 0 0 0 0 0 0 0 0 0 0 0 0 0 0 0
0 4 1 0 0 29 7 0 0 0 0 0 0 0 25 29 2 0 0 0 0 0 0 0 0 0 0 0 0 0 0 0 0 0 0 0 0 0 0 0 0 0 0 0 0 0 0 0 0
0 1 2 0 1 36 2 5 0 0 0 0 0 0 0 21 45 0 0 0 0 0 0 0 0 0 0 0 0 0 0 0 0 0 0 0 0 0 0 0 0 0 0 0 0 0 0 0 0
0 0 0 0 0 7 14 5 0 0 0 0 0 0 0 0 8 0 0 0 0 0 0 0 0 0 0 0 0 0 0 0 0 0 0 0 0 0 0 0 0 0 0 0 0 0 0 0 0
0 0 0 2 0 28 33 9 0 0 0 0 0 0 0 0 0 0 0 0 0 0 0 0 0 0 0 0 0 0 0 0 0 0 0 0 0 0 0 0 0 0 0 0 0 0 0 0 0
0 0 0 6 0 1 22 1 0 0 0 0 0 0 0 0 0 0 0 0 0 0 0 0 0 0 0 0 0 0 0 0 0 0 0 0 0 0 0 0 0 0 0 0 0 0 0 0 0
0 0 1 0 1 2 3 2 0 0 0 0 0 0 0 0 0 0 0 0 0 0 0 0 0 0 0 0 0 0 0 0 0 0 0 0 0 0 0 0 0 0 0 0 0 0 0 0 0
0 24 30 42 0 0 0 0 0 0 0 0 0 0 0 0 0 0 0 10 0 0 0 0 0 0 0 0 0 0 0 0 0 0 0 0 0 0 0 0 0 0 0 0 0 0 0 0 0
4 28 0 0 2 0 0 2 0 0 0 0 0 0 0 0 0 0 0 0 0 0 0 0 0 0 0 0 0 0 0 0 0 0 0 0 0 0 0 0 0 0 0 0 0 0 0 0 0
5 2 0 36 0 0 0 0 0 0 0 0 0 0 0 0 0 0 0 0 0 0 0 0 0 0 0 0 0 0 0 0 0 0 0 0 0 0 0 0 0 0 0 0 0 0 0 0 0
42 1 0 5 0 0 0 0 0 0 0 0 0 0 0 0 0 0 1 0 0 0 0 0 0 0 0 0 0 0 0 0 0 0 0 0 0 0 0 0 0 0 0 0 0 0 0 0 0
4 0 2 2 0 0 0 1 0 0 0 0 0 0 0 0 0 0 0 0 4 2 0 0 0 0 0 0 0 0 0 0 0 0 0 0 0 0 0 0 0 0 0 0 0 0 0 0 0
4 3 7 0 0 0 0 0 0 0 0 0 0 0 0 0 0 0 0 1 3 10 1 0 0 0 0 0 0 0 0 0 0 0 0 0 0 0 0 0 0 0 0 0 0 0 0 0 0
0 1 2 1 0 0 0 0 0 0 0 0 0 0 0 0 0 0 0 0 0 0 0 0 0 0 0 0 0 0 0 0 0 0 0 0 0 0 0 0 0 0 0 0 0 0 0 0 0
CIN
-202 -197 -161 -138 0 0 0 0 0 0 0 0 0 0 0 0 0 0 0 0 0 -210 -76 -50 -14 -9 -5 -29 0 0 0 0 0 0 0 0 0 -1 0 -2 -1 -2 -1 -1 0 0 0 -2 -4
-173 -149 -159 -103 0 0 0 0 0 0 -22 0 0 0 0 0 0 0 0 0 -151 -131 -101 -73 -36 -31 -4 0 0 0 0 0 0 0 0 0 0 -1 0 -1 -2 -1 -1 -2 0 0 0 -4 -7
-115 -187 -62 0 0 0 0 -42 0 0 -115 -47 -38 0 0 0 0 0 0 0 -159 -158 -13 0 0 0 0 0 0 0 0 0 0 0 0 -1 0 0 0 0 -3 -1 -1 -2 0 0 0 -5 -10
-120 -116 0 0 0 0 0 -38 0 -70 -48 -135 -127 0 0 0 0 0 0 -229 -187 -199 0 0 0 0 0 0 0 -96 -169 -166 0 -120 -1 -1 0 0 0 0 0 -2 -1 0 0 0 -1 -12 -4
-12 0 0 0 0 0 0 0 0 -55 -33 -98 0 0 0 0 0 0 0 -193 -215 -119 0 0 0 0 0 0 0 0 0 -19 -143 -3 -3 0 0 0 0 0 0 0 0 0 0 -1 -12 -8 -11
-5 0 0 0 0 0 0 0 0 -48 0 -92 -56 0 0 0 0 0 -92 -198 -88 0 0 0 -2 0 0 0 0 -1 0 -1 -1 -1 0 0 0 0 0 0 0 0 0 -1 -4 -13 -15 -5 -22
0 0 0 0 0 0 0 0 0 -38 0 0 0 0 0 0 0 0 0 0 0 0 0 0 -2 0 0 0 0 -1 -3 -4 -1 0 -1 -1 -1 0 0 0 0 -2 -9 -9 -16 -8 -3 -9 -29
0 0 0 0 0 0 0 0 0 0 -19 -176 0 0 0 0 0 0 0 0 0 0 0 0 -5 -2 0 0 0 0 0 0 0 0 0 0 0 0 0 0 -7 -8 -10 -11 -6 -8 -9 -18 0
0 0 0 0 0 0 0 0 0 0 0 -126 0 -204 -40 0 0 0 0 0 0 0 0 0 -6 0 0 0 0 0 0 0 0 0 0 0 0 0 0 0 -12 -10 -10 -9 -7 -20 0 0 -60
-2 0 0 0 0 0 0 0 0 -52 0 -12 -143 -258 0 0 0 0 0 0 0 0 0 0 0 0 0 0 0 0 0 0 0 0 0 0 0 0 0 -3 -9 -11 -10 -9 -14 -36 0 0 0
-4 0 0 0 0 0 0 0 0 -4 -88 -92 -89 -232 0 -389 0 0 0 0 0 0 0 0 0 0 0 0 0 0 0 0 0 0 0 0 0 0 0 0 -4 0 -25 -23 -17 -7 -63 0 0
-1 -17 0 0 0 0 0 0 0 0 -83 0 -141 -127 0 -321 0 0 0 0 0 0 0 0 0 0 0 0 0 0 0 0 0 0 0 0 0 0 0 0 0 0 -3 0 0 0 0 0 0
-2 -1 -17 0 0 0 0 0 0 0 0 0 -222 0 0 0 -28 -174 0 0 0 0 -33 0 0 0 0 0 0 0 0 0 0 0 0 0 0 0 0 0 0 0 0 0 0 0 0 0 0
-8 -14 -7 -17 0 0 0 0 0 0 0 0 -213 0 0 0 0 -196 0 0 0 0 -11 0 0 0 0 0 0 0 0 0 0 0 0 0 0 0 -21 0 0 0 0 0 0 0 0 0 0
0 -1 -9 -13 -27 -35 0 0 0 0 0 0 -194 -215 0 0 0 0 0 0 0 0 0 0 0 0 0 0 0 0 0 0 0 0 0 0 0 -22 0 0 0 0 0 0 0 0 0 0 0
0 -49 0 0 -27 -32 -4 0 0 0 0 0 0 -203 -256 0 0 0 0 0 0 0 0 0 0 0 0 0 0 0 0 0 0 0 0 0 0 0 0 0 0 0 0 0 0 0 0 0 0
0 0 0 0 0 -19 -30 0 0 0 0 0 0 -70 -223 -258 0 0 0 0 0 0 0 0 0 0 0 0 0 0 0 0 0 0 0 0 0 0 0 0 0 0 0 0 0 0 0 0 0
0 0 0 0 -1 -10 -16 0 0 0 0 0 0 0 -204 -219 -186 0 0 0 0 0 0 0 0 0 0 0 0 0 0 0 0 0 0 0 0 0 0 0 0 0 0 0 0 0 0 0 0
0 -3 0 0 -2 -5 -17 -5 0 0 0 0 0 0 -1 -226 -272 0 0 0 0 0 0 0 0 0 0 0 0 0 0 0 0 0 0 0 0 0 0 0 0 0 0 0 0 0 0 0 0
0 0 0 0 0 -8 -15 -16 0 0 0 0 0 0 0 0 -238 0 0 0 0 0 0 0 0 0 0 0 0 0 0 0 0 0 0 0 0 0 0 0 0 0 0 0 0 0 0 0 0
0 0 0 0 0 -4 -2 -4 0 0 0 0 0 0 0 0 0 0 0 0 0 0 0 0 0 0 0 0 0 0 0 0 0 0 0 0 0 0 0 0 0 0 0 0 0 0 0 0 0
0 0 0 0 0 0 -1 -1 0 0 0 0 0 0 0 0 0 0 0 0 0 0 0 0 0 0 0 0 0 0 0 0 0 0 0 0 0 0 0 0 0 0 0 0 0 0 0 0 0
0 0 -1 0 0 0 0 -3 0 0 0 0 0 0 0 0 0 0 0 -398 0 0 0 0 0 0 0 0 0 0 0 0 0 0 0 0 0 0 0 0 0 0 0 0 0 0 0 0 0
0 -1 -1 -3 0 0 0 0 0 0 0 0 0 0 0 0 0 0 0 -398 0 0 0 0 0 0 0 0 0 0 0 0 0 0 0 0 0 0 0 0 0 0 0 0 0 0 0 0 0
-1 -1 0 0 -3 0 0 -3 0 0 0 0 0 0 0 0 0 0 0 0 0 0 0 0 0 0 0 0 0 0 0 0 0 0 0 0 0 0 0 0 0 0 0 0 0 0 0 0 0
-3 -2 0 -11 -1 0 -3 -4 0 0 0 0 0 0 0 0 0 0 0 0 0 0 0 0 0 0 0 0 0 0 0 0 0 0 0 0 0 0 0 0 0 0 0 0 0 0 0 0 0
-1 0 0 -1 0 0 -2 -1 0 0 0 0 0 0 0 0 0 0 -369 -64 0 0 0 0 0 0 0 0 0 0 0 0 0 0 0 0 0 0 0 0 0 0 0 0 0 0 0 0 0
-7 -2 -3 -1 0 0 0 0 0 0 0 0 0 0 0 0 0 0 0 0 -179 -394 0 0 0 0 0 0 0 0 0 0 0 0 0 0 0 0 0 0 0 0 0 0 0 0 0 0 0
-1 -1 0 0 0 0 0 0 0 0 0 0 0 0 0 0 0 0 0 -140 -151 -522 -294 0 0 0 0 0 0 0 0 0 0 0 0 0 0 0 0 0 0 0 0 0 0 0 0 0 0
0 0 0 0 0 0 0 0 0 0 0 0 0 0 0 0 0 0 0 0 0 0 0 0 0 0 0 0 0 0 0 0 0 0 0 0 0 0 0 0 0 0 0 0 0 0 0 0 0
Wind_Speed
18 16 17 17 22 21 24 23 19 19 17 17 7 14 12 13 14 18 11 7 12 13 8 12 11 13 13 15 14 15 20 26 27 28 27 26 25 24 24 24 24 24 24 25 25 25 25 25 26
18 16 17 17 24 27 27 23 23 20 12 7 9 12 14 17 15 10 5 4 11 12 10 10 8 7 9 11 15 17 19 25 26 26 25 24 23 23 23 23 23 23 24 24 25 25 24 25 26
18 15 19 23 25 29 27 20 21 17 3 14 13 14 16 16 16 1 8 7 9 7 7 9 7 8 9 12 14 20 23 22 23 23 23 21 22 22 22 22 22 23 24 24 24 24 24 25 25
19 18 20 26 28 28 26 20 19 12 16 14 13 14 16 21 9 12 7 8 8 6 6 7 5 5 9 10 9 5 9 18 22 21 19 20 20 21 21 21 22 22 23 24 24 24 24 24 25
19 19 27 30 31 26 26 22 17 14 17 16 17 14 15 14 12 3 7 7 9 6 6 5 5 5 8 9 5 3 4 5 11 15 17 18 19 20 20 21 22 22 23 23 23 24 24 25 25
25 22 31 36 32 29 26 24 20 17 19 17 17 13 14 12 5 6 7 8 7 7 5 4 3 4 6 7 4 2 2 6 10 13 16 17 18 19 20 20 21 22 22 22 22 23 23 24 25
27 28 34 32 34 32 29 23 20 19 20 21 12 15 16 11 5 7 8 8 8 7 5 6 4 2 3 5 1 1 2 5 9 12 15 16 17 18 19 20 21 21 21 21 22 23 23 24 25
21 28 35 32 33 36 28 27 24 24 26 16 14 17 16 12 7 7 8 9 9 9 7 6 5 3 1 3 2 1 3 5 8 11 13 15 16 18 19 19 20 20 21 21 22 23 23 23 24
14 32 41 35 31 28 25 27 23 23 21 19 17 16 16 7 8 8 10 11 11 10 8 7 6 4 2 2 3 2 3 5 8 10 12 14 15 17 18 19 20 20 20 21 22 22 22 22 23
21 34 38 33 30 29 26 25 27 25 25 25 19 17 3 8 9 10 13 15 15 13 11 9 8 6 4 3 2 0 2 4 6 9 11 13 14 16 17 18 19 20 20 20 21 21 21 21 22
23 37 32 34 31 29 28 27 27 27 30 30 19 12 6 9 10 9 13 16 17 15 14 13 10 8 6 5 3 1 1 3 5 7 10 11 13 14 15 16 17 18 18 18 19 20 21 21 20
35 30 28 33 31 33 32 30 31 29 27 27 25 12 11 10 11 11 11 15 17 14 14 13 12 10 8 5 4 2 1 1 4 6 8 9 11 12 13 15 17 16 16 16 17 18 19 20 20
39 35 30 31 33 36 34 35 36 35 33 30 19 13 13 12 12 13 12 11 14 17 15 14 13 12 10 7 4 3 2 2 4 5 6 8 10 11 12 14 16 16 15 14 16 17 18 19 19
37 36 36 33 39 38 40 39 36 33 26 28 20 16 14 13 13 15 14 13 14 16 15 15 15 15 12 10 6 4 3 3 3 3 6 8 8 11 12 13 14 15 15 15 15 16 17 18 18
36 43 38 39 38 44 38 52 46 42 32 30 29 22 20 16 13 14 13 13 14 17 17 15 16 17 14 12 8 6 5 3 3 3 5 6 8 9 10 11 13 14 15 15 16 16 17 17 18
40 39 46 42 36 42 40 69 41 37 34 37 33 31 28 24 16 15 15 14 14 16 17 19 19 19 17 14 11 8 6 5 4 4 3 4 6 7 9 10 12 12 13 14 14 15 15 16 16
47 50 49 45 37 38 47 56 48 40 38 40 38 34 33 31 29 21 15 14 14 15 18 20 20 19 18 17 12 9 7 6 6 4 4 3 5 7 8 9 10 10 11 12 13 14 14 14 15
58 58 50 55 42 43 51 62 47 35 40 44 42 39 37 35 39 24 18 16 15 16 17 20 23 22 19 17 14 11 8 7 6 6 6 4 4 5 6 8 8 9 9 10 12 13 13 13 13
52 53 59 48 43 42 59 59 57 48 43 43 41 41 41 41 38 29 22 18 16 16 17 19 21 20 17 15 13 11 10 9 8 7 8 6 3 3 4 5 6 7 7 8 9 11 11 12 12
51 63 62 50 48 37 47 61 64 55 53 48 45 43 43 43 37 33 25 20 18 18 18 19 19 19 18 17 16 16 12 11 9 8 7 5 3 1 2 3 4 5 5 5 6 8 10 11 7
51 59 64 52 46 45 44 55 56 58 58 57 50 47 45 43 40 38 29 21 21 20 19 19 19 20 19 18 17 18 13 16 11 9 9 6 4 2 0 1 2 2 3 3 3 4 7 9 4
53 51 55 51 45 56 42 60 55 55 59 65 61 55 50 43 40 37 35 27 21 20 21 20 20 20 20 18 17 16 14 13 12 11 8 7 5 4 3 1 1 1 2 2 1 2 5 8 6
53 54 50 49 53 46 43 51 50 45 56 67 63 61 54 49 39 35 33 24 22 23 21 21 20 20 20 19 19 18 16 14 13 11 11 9 7 6 5 4 3 3 3 3 2 3 4 6 7
38 47 47 42 47 50 38 49 51 50 53 57 61 58 56 50 42 37 32 31 31 26 24 22 21 20 20 20 20 20 18 16 14 13 13 11 9 9 8 7 6 5 6 5 4 5 5 6 8
47 42 48 47 43 43 36 44 50 30 43 50 51 53 54 51 44 41 36 33 28 26 24 23 22 22 21 21 21 21 20 18 17 15 14 14 12 12 11 9 9 8 8 8 7 6 6 7 8
52 54 42 41 43 38 29 46 44 39 42 33 35 44 47 52 47 42 36 31 28 26 25 24 23 23 22 21 22 20 20 20 19 17 17 16 15 14 13 12 11 11 10 10 9 9 8 8 9
41 52 54 29 25 31 33 36 35 31 29 33 40 40 45 48 50 47 39 35 30 29 26 24 24 24 23 23 22 22 21 20 20 19 19 18 17 16 15 14 13 12 11 13 10 11 10 10 10
44 36 39 38 32 36 29 33 35 32 34 34 36 39 43 44 46 47 41 36 33 30 28 27 26 26 25 26 24 23 23 21 20 21 22 20 18 16 16 16 15 14 13 13 12 12 11 10 10
35 36 40 23 26 32 35 31 24 30 31 33 33 34 37 37 41 43 46 44 39 34 33 29 28 27 26 26 26 26 25 24 23 21 24 21 19 18 17 17 16 16 15 13 16 13 12 11 10
28 34 35 33 31 29 29 28 20 21 22 24 26 26 26 26 30 35 39 45 41 36 34 33 29 30 29 27 27 27 27 25 25 24 20 19 19 19 18 16 17 17 17 15 16 14 12 11 10
Wind_Direction
299 301 292 291 268 273 263 263 273 269 278 275 306 274 272 273 262 251 246 229 110 107 100 92 95 93 93 91 83 75 86 109 112 113 107 97 78 75 73 65 62 59 55 53 53 52 50 49 40
294 298 290 286 266 258 258 266 261 269 297 347 299 284 268 261 259 275 197 161 118 114 110 100 100 93 87 82 83 86 86 108 108 103 99 88 75 76 69 63 59 55 59 54 50 51 49 44 41
290 295 278 265 263 256 257 268 267 276 310 289 287 288 271 262 257 198 244 148 131 129 119 112 106 92 87 85 87 102 105 98 101 102 99 78 75 72 67 61 59 61 54 49 53 51 50 45 46
279 281 274 262 260 259 261 270 277 274 272 292 289 290 276 253 256 245 141 145 144 145 128 121 115 94 87 86 80 60 72 93 104 94 75 73 72 68 65 61 62 60 59 56 51 48 50 50 51
280 278 260 260 259 264 260 268 274 266 270 280 277 288 279 261 263 175 157 164 151 157 138 135 119 98 89 86 80 61 51 25 59 67 71 72 69 68 66 63 65 63 58 53 49 51 53 50 52
267 267 258 253 257 258 261 263 272 269 267 274 277 288 280 266 256 197 185 172 183 164 172 177 137 104 91 88 85 66 36 41 57 64 70 69 67 67 66 66 64 61 59 56 56 57 56 54 51
269 259 257 256 255 255 254 265 268 265 262 266 284 277 281 256 239 184 201 203 196 191 187 221 212 148 98 94 103 54 15 30 51 64 68 62 63 66 65 64 63 64 62 60 61 53 58 53 51
282 263 255 255 253 253 259 262 266 259 259 275 274 276 274 251 206 201 207 209 208 211 215 211 225 215 165 106 106 68 43 45 54 62 63 65 66 67 67 65 65 64 62 64 57 51 52 52 48
289 262 252 251 250 255 263 258 264 268 261 263 264 278 279 170 184 203 214 217 216 218 216 219 220 217 176 131 113 83 49 48 59 62 68 68 66 68 65 66 66 62 66 65 57 53 51 49 48
269 263 256 254 254 253 259 261 261 259 254 255 264 274 255 170 178 199 213 219 220 220 222 218 223 212 199 218 131 106 37 48 56 66 71 69 69 67 64 65 66 52 55 58 52 51 48 51 51
270 263 263 256 254 253 255 260 264 255 251 250 258 253 195 195 205 212 227 225 223 221 226 225 224 222 215 230 149 184 44 48 60 74 79 69 64 60 62 63 55 49 49 53 47 46 47 48 50
266 267 266 260 255 252 253 259 259 256 256 263 262 234 205 199 204 207 220 222 220 214 218 219 224 222 226 226 178 162 173 46 79 87 83 74 73 70 67 57 44 46 51 50 44 46 45 44 46
262 267 260 261 259 252 254 253 256 254 257 260 262 223 201 202 222 238 234 228 217 223 219 219 222 227 230 220 223 208 185 136 111 97 88 82 73 65 72 56 43 42 52 49 46 44 42 42 50
275 261 264 257 255 254 250 251 252 253 261 255 252 238 228 208 222 240 236 227 218 221 218 220 225 231 232 233 227 221 217 159 137 109 102 97 74 72 65 53 45 49 51 49 49 47 47 47 50
282 261 257 254 252 251 250 246 246 247 255 253 249 248 245 239 232 223 220 219 215 223 223 220 225 233 233 234 228 231 221 208 179 143 115 93 87 67 57 54 45 50 56 57 55 50 46 48 44
270 268 251 247 246 249 245 237 247 247 249 248 248 248 249 248 238 239 237 233 222 223 219 231 231 235 236 238 240 234 217 214 198 163 127 96 94 73 59 51 43 57 61 61 57 52 50 46 44
254 257 250 252 241 249 241 242 241 247 248 246 245 247 247 248 249 251 238 232 221 222 224 231 231 233 235 240 242 233 221 208 192 187 157 110 92 84 63 49 45 67 67 63 57 51 54 48 48
246 248 253 247 248 243 244 240 241 245 246 245 245 246 245 246 242 249 243 236 229 226 222 232 235 235 235 239 242 241 230 216 203 184 168 142 112 82 50 46 54 76 68 68 54 56 49 50 50
253 248 249 256 253 248 242 242 239 242 246 246 245 245 243 244 246 247 248 240 233 226 220 224 230 230 226 226 220 229 221 222 213 195 173 160 134 87 52 49 59 71 75 76 60 50 44 36 49
252 243 245 258 251 244 246 243 241 243 242 244 245 245 245 245 246 246 245 239 230 225 225 222 223 222 222 228 233 248 237 243 234 200 189 184 176 131 68 63 70 81 78 77 68 56 30 20 57
248 240 237 247 254 247 249 248 244 241 241 241 244 246 245 246 246 244 245 235 238 233 226 215 215 221 220 229 234 249 249 258 247 224 202 203 216 220 204 68 58 80 73 91 80 51 19 11 28
246 237 235 242 250 237 239 242 241 238 239 237 239 241 243 246 248 247 245 243 228 228 234 226 221 221 223 222 214 206 223 225 229 215 226 224 234 241 268 275 301 327 335 334 326 7 355 1 355
238 227 230 242 243 247 237 240 240 239 239 236 239 239 241 243 249 249 246 236 231 238 231 229 224 221 217 209 205 211 218 233 247 245 220 228 246 253 260 263 275 291 290 305 265 306 330 342 342
242 228 229 238 244 239 238 236 242 240 239 242 240 239 241 243 248 250 250 246 245 241 237 231 220 215 210 212 209 208 214 232 240 235 232 238 251 257 267 269 275 288 292 286 284 293 302 321 332
224 220 223 234 241 236 234 239 238 250 245 245 242 241 243 243 245 248 249 245 240 233 231 230 221 217 215 214 210 213 217 231 231 234 242 249 252 263 258 265 273 281 294 294 297 295 288 302 314
212 210 217 231 228 232 237 238 241 248 248 253 251 249 247 243 242 245 247 243 237 233 233 228 225 223 219 220 214 226 231 240 243 243 250 253 255 259 266 264 273 282 287 290 293 294 295 301 307
206 210 208 253 237 231 239 246 249 253 258 259 257 257 251 245 240 242 244 244 241 240 234 227 228 230 232 228 234 235 237 238 240 248 254 259 262 268 268 266 272 277 279 289 288 293 295 302 306
205 211 220 234 228 230 243 242 244 257 260 265 267 262 251 247 243 242 243 242 244 243 240 241 240 237 239 244 241 242 242 243 246 253 256 259 262 266 269 269 270 274 279 284 283 293 300 300 306
213 217 222 246 244 237 237 245 279 274 270 268 269 265 255 253 246 245 244 246 246 247 246 244 244 244 243 243 246 249 250 251 254 251 261 260 263 263 263 265 266 269 271 276 288 285 290 291 297
223 231 235 244 243 253 255 256 295 292 284 281 278 277 266 261 259 252 250 245 244 245 247 247 246 248 248 250 249 250 253 253 255 259 253 254 256 262 262 269 269 266 275 273 274 278 282 283 286